Location: Iesi
(43.5167°N, 13.2333°E)
Time: 17:10:41
(UTC+00:00)

Cosmos 2278 - Pass Details

Date: 08 August 2020
Orbit: 839 x 853 km, 71.1° (Epoch: 22 September)

Event Time Altitude Azimuth Distance (km) Brightness Sun altitude
Rises 20:05:42 0° 337° (NNW) 3,431 8.1 -16.9°
Reaches altitude 10° 20:08:11 10° 340° (NNW) 2,491 7.1 -17.2°
Maximum altitude 20:13:53 66° 63° (ENE) 929 3.8 -18.0°
Enters shadow 20:16:32 32° 135° (SE) 1,423 4.3 -18.3°
